Location: Casare Gasparine di Dentro
(45.7167°N, 11.0667°E)
Time: 07:37:19
(UTC+00:00)

Daily predictions for brighter satellites

Satellite Brightness Start Highest point End
(mag) Time Altitude Azimuth Time Altitude Azimuth Time Altitude Azimuth
ATLAS 2AS CENTAUR R/B 4.2 16:26:15 10° NNW 16:32:15 24° NNE 16:37:56 10° ENE
Cosmos 2266 Rocket 4.3 16:26:10 10° N 16:32:26 77° W 16:38:45 10° S
Lacrosse 5 3.5 16:31:47 10° WNW 16:35:49 23° N 16:39:52 10° NE
CSL-04 DEB 4.3 16:31:55 10° NNE 16:35:52 89° ESE 16:39:47 10° SSW
AQUARIUS 4.1 16:32:56 10° SSE 16:37:25 73° ENE 16:41:55 10° N
Cosmos 1953 Rocket 3.6 16:35:11 10° N 16:39:35 60° E 16:43:58 10° SSE
Cosmos 1656 4.2 16:35:14 10° S 16:40:22 40° ESE 16:45:36 10° NE
Cosmos 968 Rocket 4.0 16:38:32 10° N 16:43:23 37° ENE 16:48:10 10° SE
Cosmos 1408 4.2 16:41:54 10° NNE 16:44:16 16° ENE 16:46:37 10° ESE
Cosmos 2058 Rocket 3.5 16:41:50 10° SSE 16:46:03 43° E 16:50:20 10° NNE
NOAA 12 4.2 16:42:01 10° SSE 16:47:19 88° WSW 16:52:42 10° NNW
FALCON 9 DEB 3.3 16:45:07 10° WSW 16:48:20 60° NNW 16:51:34 10° NE
CZ-4B R/B 3.6 16:43:12 10° S 16:48:47 74° WSW 16:54:18 10° NNW
ADEOS Rocket 3.8 16:45:13 10° N 16:51:39 66° WNW 16:58:46 10° SSW
USA 281 3.4 16:46:08 10° SSE 16:52:42 83° WSW 16:59:18 10° NNW
Cosmos 1689 Rocket 3.2 16:51:29 10° NE 16:53:51 22° E 16:56:11 10° SSE
IRS-1C Rocket 4.3 16:50:49 10° SE 16:55:51 48° ENE 17:00:55 10° N
FALCON 9 DEB 4.5 16:54:25 10° NW 16:57:22 26° N 16:59:43 14° ENE
FALCON 9 DEB 3.6 16:54:48 10° WSW 16:57:57 49° NNW 17:00:47 12° NE
CZ-4C R/B 4.2 16:54:46 10° NNW 16:59:29 20° NNE 17:04:27 11° ENE
Cosmos 2227 Rocket 2.2 16:54:07 10° NNW 16:59:45 62° ENE 17:05:20 10° SE
Cosmos 1892 3.2 16:56:49 10° N 17:00:27 36° ENE 17:04:04 10° SE
Cosmos 1939 Rocket 3.1 16:57:14 10° SE 17:01:01 45° ENE 17:04:46 10° N
Cosmos 2263 Rocket 3.9 16:57:54 10° N 17:01:09 15° NE 17:03:24 12° ENE
Cosmos 1302 Rocket 4.0 16:57:11 10° SSW 17:02:27 80° ESE 17:07:45 10° NNE
H-2A R/B 3.7 17:02:24 10° N 17:06:10 34° WNW 17:09:53 10° SW
USA 307 3.2 17:02:54 10° NW 17:07:05 50° NNE 17:10:17 16° E
COSMO-SKYMED 1 2.8 17:03:56 10° NNE 17:08:10 48° E 17:12:21 10° S
SAR-Lupe-4 3.5 17:06:17 10° NNE 17:09:51 63° ESE 17:13:24 10° S
Cosmos 1300 3.3 17:06:29 10° SSW 17:10:15 59° W 17:14:03 10° N
Cosmos 1400 Rocket 2.8 17:07:48 10° S 17:11:54 84° E 17:16:00 10° NNE
USA 308 3.1 17:07:52 10° NW 17:12:05 53° NNE 17:15:04 18° E
Cosmos 1486 Rocket 4.0 17:07:49 10° NNW 17:13:09 67° ENE 17:18:26 10° SSE
Cosmos 1697 Rocket 3.1 17:08:19 10° S 17:13:30 40° ESE 17:18:43 10° NE
CZ-4B R/B 1.8 17:10:40 10° N 17:13:50 60° WNW 17:16:54 10° SSW
Cosmos 1825 3.2 17:12:57 10° NNE 17:16:04 24° ENE 17:17:29 19° ESE
ERS-2 2.9 17:14:02 10° N 17:17:36 54° WNW 17:21:10 10° SSW
Helios 1A Rocket 3.1 17:14:21 10° SE 17:18:19 49° ENE 17:22:17 10° N
Meteor 2-8 Rocket 4.4 17:13:58 10° S 17:20:04 81° E 17:26:15 10° N
YAOGAN 1 3.0 17:16:44 10° SE 17:20:42 37° ENE 17:24:43 10° N
S3M 4.1 17:15:28 10° SSE 17:21:18 49° E 17:27:13 10° NNE
CZ-4 R/B 4.4 17:17:35 10° SSE 17:21:41 62° ENE 17:25:49 10° N
BREEZE-M TANK 3.0 17:14:05 10° W 17:22:43 84° S 17:24:59 22° E
Cosmos 1503 Rocket 4.2 17:18:17 10° NNW 17:23:20 48° ENE 17:28:25 10° SE
Atlas Centaur 2 4.4 17:17:11 10° SW 17:23:41 26° S 17:30:04 11° ESE
CZ-2D R/B 3.1 17:22:35 10° SSE 17:26:21 64° ENE 17:30:07 10° N
Cosmos 1812 Rocket 4.2 17:22:55 10° SSE 17:26:51 33° E 17:30:47 10° NNE
Meteor 2-1 Rocket 4.3 17:22:00 10° SSE 17:27:16 49° E 17:32:35 10° NNE
Cosmos 1340 3.0 17:23:32 10° NNW 17:27:19 66° W 17:31:03 10° S
SAR-Lupe-1 4.1 17:24:06 10° NNE 17:27:42 83° WNW 17:31:14 10° SSW
Okean O Rocket 3.7 17:23:52 10° SSW 17:27:43 30° W 17:31:35 10° NW
CZ-4 R/B 1.4 17:25:24 10° SSE 17:29:10 50° ENE 17:32:54 10° N
Cosmos 1417 Rocket 4.4 17:25:16 10° S 17:31:29 74° E 17:37:49 10° NNE
SKYMED 3 4.5 17:27:52 10° NNE 17:32:15 87° ESE 17:36:36 10° SSW
Cosmos 1346 Rocket 2.7 17:31:10 10° N 17:35:10 71° ENE 17:39:09 10° SSE
Aureole 3 3.8 17:32:15 10° SSW 17:35:12 43° WNW 17:38:04 10° N
SL-4 R/B 2.3 17:32:03 10° WNW 17:35:28 42° NNE 17:36:32 33° ENE
Cosmos 2058 2.7 17:31:51 10° N 17:35:57 67° E 17:40:01 10° SSE
Cosmos 1354 Rocket 4.1 17:31:01 10° NNW 17:36:10 53° ENE 17:41:00 12° SE
Cosmos 1980 Rocket 2.8 17:32:12 10° SSE 17:37:10 33° ESE 17:39:22 25° ENE
Cosmos 2151 4.3 17:35:19 10° NNE 17:37:30 21° NE 17:37:30 21° NE
Cosmos 1992 Rocket 3.9 17:33:50 10° S 17:38:59 68° ESE 17:44:10 10° NNE
Cosmos 2297 Rocket 2.9 17:33:40 10° NNW 17:39:13 57° WSW 17:44:44 10° S
PSLV R/B 3.8 17:36:03 10° NNE 17:40:15 86° E 17:44:23 10° SSW
In-Cosmos 22 Rocket 4.5 17:35:21 10° NNW 17:40:42 67° W 17:46:08 10° S
Meteor 2-15 Rocket 4.4 17:35:47 10° S 17:41:50 63° E 17:47:54 10° NNE
Timation 1 Rocket 4.5 17:36:30 10° NNW 17:42:24 53° ENE 17:46:16 21° SE
CZ-2C R/B 3.2 17:37:07 10° SSE 17:42:50 66° ENE 17:48:22 10° N
CSL-04 Debris 4.3 17:38:10 10° SE 17:43:24 51° ENE 17:48:40 10° N
Cosmos 1315 Rocket 2.7 17:41:45 10° S 17:45:40 69° E 17:49:40 10° NNE
NOAA 15 4.5 17:43:37 10° SSE 17:48:55 77° ENE 17:54:15 10° NNW
Cosmos 1553 Rocket 4.2 17:43:19 10° SSW 17:49:39 75° W 17:55:56 10° N
CRYOSAT 2 4.3 17:45:48 10° NNE 17:50:37 58° E 17:55:24 10° S
Cosmos 220 Rocket 4.0 17:47:13 10° SSW 17:51:35 82° WNW 17:55:50 11° NNE
Meteor 2-15 4.4 17:47:08 10° S 17:53:18 86° W 17:59:28 10° N
Geosat 4.2 17:52:54 34° ENE 17:54:28 45° ESE 17:59:16 10° S
Meteor 2-10 Rocket 3.5 17:50:14 10° SSW 17:55:32 83° W 18:00:40 10° N
BREEZE-M R/B 3.7 17:51:41 10° WNW 17:55:46 70° NNE 17:59:00 33° E
SKYMED 2 4.3 17:52:01 10° N 17:56:15 53° WNW 18:00:29 10° SSW
USA 305 2.8 17:52:38 10° WNW 17:56:57 84° SW 17:58:11 46° SE
Cosmos 1455 2.1 17:53:45 10° S 17:57:31 85° W 18:01:22 10° N
Cosmos 2360 4.1 17:54:36 10° SSW 18:00:18 72° ESE 18:04:36 18° NNE
SeaSat 1 3.0 18:00:38 37° NE 18:00:42 37° NE 18:05:13 10° NNW
NOSS 3-4 (A) 4.0 17:56:09 10° NNW 18:02:52 52° NE 18:05:39 36° E
NOSS 3-4 (C) 4.0 17:56:16 10° NNW 18:02:59 52° NE 18:05:43 36° E
H-2A R/B 2.1 17:57:54 10° SSE 18:03:17 69° ENE 18:08:43 10° N
USA 306 2.9 17:59:09 10° WNW 18:03:26 76° SW 18:04:25 52° SE
Okean-O 3.1 18:00:24 10° S 18:04:46 61° WSW 18:09:11 10° NNW
MOS 1 Rocket 3.2 18:04:07 10° NNE 18:08:52 71° ESE 18:13:53 10° S
Cosmos 2278 3.6 18:04:57 10° S 18:10:33 64° ESE 18:12:45 37° NE
NOSS 3-3 (A) 4.0 18:05:54 10° SW 18:11:44 79° NW 18:16:10 22° NE
NOSS 3-3 (C) 4.0 18:06:01 10° SW 18:11:51 80° NW 18:16:14 22° NE
USA 215 4.0 18:10:10 30° NE 18:12:21 39° NNE 18:18:18 10° NW
Cosmos 1745 Rocket 4.5 18:10:07 10° NNW 18:16:20 62° W 18:22:33 10° S
ATLAS 5 CENTAUR R/B 4.3 18:15:16 10° N 18:16:29 11° N 18:17:34 10° NNE
GEOS 3 Rocket 3.6 18:17:20 56° E 18:18:15 66° NE 18:23:37 10° NW
ARGOS 3.0 18:17:21 43° SE 18:19:08 71° ENE 18:24:34 10° N
Cosmos 44 Rocket 3.1 18:14:25 10° SSW 18:19:11 88° SE 18:19:58 63° NE
Cosmos 1408 4.1 18:16:02 10° NNW 18:19:24 36° W 18:22:47 10° SSW
Cosmos 2082 4.2 18:14:27 10° NNW 18:20:05 59° WSW 18:25:42 10° S
Lacrosse 5 3.1 18:15:45 10° NW 18:20:08 29° NNE 18:20:11 29° NNE
Meteor 2-3 Rocket 4.1 18:14:55 10° N 18:19:36 44° NE 18:19:36 44° NE
ATLAS 2AS CENTAUR R/B 2.9 18:17:35 10° NW 18:25:00 55° NE 18:26:17 49° ENE
Cosmos 2369 4.2 18:29:29 10° SW 18:35:07 58° WNW 18:39:11 19° NNE
Cosmos 967 Rocket 4.5 18:30:40 10° SSW 18:36:33 61° SE 18:36:33 61° SE
Cosmos 1777 Rocket 4.2 18:34:18 10° NNW 18:38:35 59° N 18:38:35 59° N
CSL-04 Rocket 4.2 18:35:08 10° S 18:40:36 60° WSW 18:46:04 10° NNW
Cosmos 1709 Rocket 4.4 18:39:33 10° NNW 18:45:52 64° W 18:52:09 10° S
Cosmos 2263 Rocket 2.5 18:40:30 10° NNW 18:45:08 55° N 18:45:08 55° N
USA 307 4.3 18:43:06 10° WNW 18:46:28 35° WSW 18:46:28 35° WSW
CZ-4C R/B 3.3 18:43:06 10° NNW 18:49:38 46° NE 18:49:38 46° NE
Cosmos 1825 4.4 18:48:23 10° NW 18:51:30 25° W 18:52:23 22° WSW
USA 308 4.5 18:48:07 10° WNW 18:51:16 32° WSW 18:51:16 32° WSW
Cosmos 1697 Rocket 4.1 18:52:22 10° WSW 18:57:30 35° NW 19:01:26 16° N
CZ-4 R/B 4.4 19:02:33 10° WSW 19:04:30 13° W 19:06:26 10° WNW
Atlas Centaur 2 4.3 19:05:46 10° WSW 19:12:20 25° S 19:12:40 25° S
Cosmos 1980 Rocket 3.2 19:15:44 10° SW 19:21:02 41° NW 19:21:13 41° NW
USA 215 4.3 19:57:31 39° NW 19:57:31 39° NW 20:01:25 10° NW
ATLAS 2AS CENTAUR R/B 4.1 20:09:02 10° NW 20:13:44 33° W 20:13:44 33° W
CZ-4C R/B 4.4 20:31:33 10° NW 20:34:50 29° NW 20:34:50 29° NW
